Location: Goettingen
(51.5300°N, 9.9433°E)
Time: 22:33:46
(UTC+02:00)

N. Korean satellite - Pass Details

Date: 05 October 2021
Orbit: 450 x 495 km, 97.3° (Epoch: 23 October)

Event Time Altitude Azimuth Distance (km) Brightness Sun altitude
Rises 05:31:00 0° 30° (NNE) 2,562 11.0 -18.8°
Reaches altitude 10° 05:34:01 10° 59° (ENE) 1,684 10.5 -18.3°
Maximum altitude 05:35:49 13° 89° (E) 1,492 10.1 -18.1°
Drops below altitude 10° 05:37:37 10° 119° (ESE) 1,686 9.9 -17.8°
Sets 05:40:39 0° 147° (SSE) 2,567 10.5 -17.3°
